Regional Weather Roundup
Issued by NWS Sioux Falls, SD

Home | Current Version | Previous Version | Text Only | Print | Product List | Glossary Off
Versions: 1 2 3 4 5 6 7 8 9 10 11 12 13 14 15 16 17 18 19 20 21 22 23 24 25 26 27 28 29 30 31 32 33 34 35 36 37 38 39 40 41 42 43 44 45 46 47 48 49 50

000
ASUS43 KFSD 200410
RWRFSD

WEATHER ROUNDUP FOR SE SOUTH DAKOTA/SW MINNESOTA/NW IOWA
NATIONAL WEATHER SERVICE SIOUX FALLS SD
1100 PM CDT THU APR 19 2018

NOTE: "FAIR" INDICATES FEW OR NO CLOUDS BELOW 12,000 FEET WITH NO
SIGNIFICANT WEATHER AND OR OBSTRUCTIONS TO VISIBILITY.


SDZ038>040-050-052>070-200500-
SOUTHEAST SOUTH DAKOTA

CITY           SKY/WX    TMP DP  RH WIND       PRES   REMARKS
BROOKINGS      CLOUDY    34  28  79 SE6       30.43R WCI  29
CHAMBERLAIN    CLEAR     37  35  90 SE8       30.37S
HURON          PTCLDY    36  27  69 S7        30.41R
MADISON        FAIR      32  32 100 SE6       30.42R WCI  26
MITCHELL       PTCLDY    36  28  73 SE10      30.42R
SIOUX FALLS    CLOUDY    34  27  75 E5        30.43R WCI  30
WINNER         FAIR      36  28  73 SE13      30.34R
YANKTON        CLOUDY    35  29  78 E8        30.42R WCI  29
$$

MNZ071-072-080-081-089-090-097-098-200500-
SOUTHWEST MINNESOTA

CITY           SKY/WX    TMP DP  RH WIND       PRES   REMARKS
FAIRMONT       CLOUDY    26  21  81 CALM      30.47S
JACKSON        CLOUDY    28  23  80 CALM      30.46R
LUVERNE        CLOUDY    30  27  86 CALM      30.44S
MARSHALL       CLOUDY    31  25  78 SW9       30.45R WCI  23
MONTEVIDEO     PTCLDY    36  27  69 SW5       30.44S
PIPESTONE      CLOUDY   N/A N/A N/A SE3       30.42S
REDWOOD FALLS  CLOUDY    30  25  81 S7        30.45S WCI  23
TRACY          CLOUDY    34  26  73 S9        30.44R WCI  27
WINDOM         CLOUDY    28  14  54 CALM      30.45S
WORTHINGTON    CLOUDY    29  25  85 CALM      30.45R
$$

IAZ001>003-012>014-020>022-031-032-NEZ013-014-SDZ071-200500-
NORTHWEST IOWA

CITY           SKY/WX    TMP DP  RH WIND       PRES   REMARKS
CHEROKEE       CLOUDY    29  23  79 CALM      30.45S
DENISON        CLOUDY    36  28  75 E6        30.44S
ESTHERVILLE    PTCLDY    24  19  81 CALM      30.45S
LE MARS        CLOUDY    34  23  64 VRB5      30.44R WCI  30
ORANGE CITY    CLOUDY    32  27  80 E7        30.43S WCI  26
SHELDON        CLOUDY    32  27  80 E8        30.42F WCI  25
SIOUX CITY     CLEAR     34  25  69 SE3       30.43R
SPENCER        CLOUDY    29  23  78 NE3       30.46R
STORM LAKE     CLOUDY    30  23  74 NE8       30.44R WCI  23
$$

ABBREVIATIONS USED IN REMARKS
   TC - TEMPERATURE IN CELSIUS
  WCI - WIND CHILL INDEX
   HX - HEAT INDEX
  VSB - VISIBILITY





USA.gov is the U.S. government's official web portal to all federal, state and local government web resources and services.